SCP
1 2 2 2 2 2 2 2 2 2 1 1 1 1 2 2 2 2 1 1 1 1 1 1 1 1 1 1 1 1 0 0 0 0 0 0 0 0 0 0 0 0 0
1 2 2 3 2 2 2 2 2 2 1 1 1 1 1 2 2 1 1 1 1 1 1 1 1 1 1 1 1 1 0 0 0 0 0 0 0 0 0 0 0 0 0
2 2 3 3 3 2 2 2 2 2 1 1 1 1 2 2 2 2 1 1 1 1 1 1 1 1 1 1 1 1 1 0 0 0 0 0 0 0 0 0 0 0 0
2 2 3 3 3 3 3 3 2 2 1 1 1 1 2 2 2 2 2 1 1 1 1 1 1 1 1 1 1 1 1 1 0 0 0 0 0 0 0 0 0 0 0
3 3 3 4 3 3 3 3 2 2 2 1 1 1 1 1 1 2 2 2 1 1 1 1 1 1 1 1 1 1 1 1 1 0 0 0 0 0 0 0 0 0 0
3 3 4 4 3 3 3 3 2 2 2 2 1 1 1 1 1 1 1 1 1 1 1 1 1 1 1 1 1 1 1 1 1 0 0 0 0 0 0 0 0 0 0
3 3 4 4 4 3 3 3 2 2 2 2 2 1 1 1 1 1 1 1 1 1 1 1 1 1 1 1 1 1 1 1 1 0 0 0 0 0 0 0 0 0 0
3 3 3 4 3 3 3 3 3 2 2 2 2 2 1 1 1 1 2 2 1 1 1 1 1 1 1 1 1 1 1 1 1 0 0 0 0 0 0 0 0 0 0
3 3 3 3 3 3 3 3 2 2 2 2 2 2 2 2 2 2 2 2 1 1 1 1 1 1 1 1 1 1 1 1 1 0 0 0 0 0 1 1 1 1 1
2 2 3 3 3 3 3 3 2 2 2 2 2 2 2 2 2 2 2 1 1 1 1 1 1 1 1 1 1 1 1 1 1 1 0 0 0 1 1 1 1 1 1
1 2 3 3 3 3 3 3 3 3 2 2 2 1 1 1 2 2 1 1 1 1 1 1 1 1 1 1 1 1 1 1 1 1 0 0 0 1 1 1 1 1 1
1 1 2 3 3 2 3 3 4 3 2 2 2 1 1 1 2 2 2 2 1 1 1 1 1 1 1 1 1 1 1 1 1 1 1 0 1 1 1 1 1 1 1
1 1 1 2 2 2 2 3 4 3 2 2 2 1 1 2 2 2 2 2 1 1 1 1 1 1 1 1 1 1 1 1 1 1 1 1 1 1 1 1 1 1 1
0 0 1 1 1 1 2 3 4 3 2 2 2 2 2 2 2 2 2 2 1 1 1 1 1 1 1 1 1 1 1 1 1 1 1 1 1 1 1 1 1 1 1
0 0 0 0 0 0 1 2 3 3 2 1 1 2 2 2 2 2 2 2 1 1 2 2 1 1 1 1 1 1 0 1 1 1 1 1 1 1 1 1 1 1 1
0 0 0 0 0 0 1 1 2 2 1 1 1 1 1 1 1 1 1 2 1 1 2 2 1 1 1 1 1 1 0 0 0 1 1 1 1 1 1 1 1 1 1
0 0 0 0 0 0 0 1 1 1 0 0 0 1 1 1 0 1 1 1 1 1 2 1 1 1 1 1 1 1 0 0 0 0 0 1 1 1 1 1 1 1 1
0 0 0 0 0 0 0 0 1 1 0 0 0 0 0 0 0 0 1 1 1 1 1 1 1 1 0 1 1 1 0 0 0 0 0 0 1 1 1 1 1 1 2
0 0 0 0 0 0 0 1 1 0 0 0 0 0 0 0 0 0 0 1 1 1 1 1 1 0 0 1 1 1 0 0 0 0 0 0 0 0 0 1 1 1 1
0 0 0 0 0 1 1 1 1 0 0 0 0 0 0 0 0 0 0 0 0 1 1 1 0 0 0 1 2 1 1 0 0 0 0 0 0 0 0 0 1 1 1
0 0 0 0 0 1 1 0 0 0 0 0 0 0 0 0 0 0 0 0 0 0 1 0 0 0 0 1 2 1 1 1 0 0 0 0 0 0 0 0 1 1 1
0 0 0 0 0 1 0 0 0 0 0 0 0 0 0 0 0 0 0 0 0 0 0 0 0 0 0 1 1 1 1 1 0 0 0 0 0 0 0 1 1 1 1
0 0 0 0 0 0 0 0 0 0 0 0 0 0 0 0 0 0 0 0 0 0 0 0 0 0 0 0 1 1 1 1 0 0 0 0 0 0 0 0 0 0 0
0 0 0 0 0 0 0 0 0 0 0 0 0 0 0 0 0 0 0 0 0 0 0 0 0 0 0 0 1 1 1 0 0 0 0 0 0 0 0 0 0 0 0
0 0 0 0 0 0 0 0 0 0 0 0 0 0 0 0 0 0 0 0 0 0 0 0 0 0 0 0 1 1 0 0 0 0 0 0 0 0 0 0 0 0 0
0 0 0 0 0 0 0 0 0 0 0 0 0 0 0 0 0 0 0 0 0 0 0 0 0 0 0 0 0 1 0 0 0 0 0 0 0 0 0 0 0 1 0
Wind_Speed
3 4 9 9 9 9 9 9 9 9 9 9 9 10 10 10 10 10 10 10 9 9 9 9 9 10 10 10 10 10 10 10 10 10 9 9 9 10 10 10 9 6 11
6 5 9 9 9 9 8 9 9 8 8 9 9 9 9 9 9 9 9 9 9 9 9 9 9 9 9 9 9 9 9 9 9 8 8 6 7 8 9 9 9 6 10
7 6 8 9 9 9 8 8 8 8 8 8 8 9 9 9 9 8 8 8 8 8 8 9 9 8 8 9 8 8 8 8 8 7 7 4 4 8 9 9 8 9 9
7 6 6 9 9 9 9 8 8 8 9 8 8 8 8 9 9 8 8 7 7 8 8 9 8 8 8 8 7 7 7 7 7 6 3 2 3 7 9 9 9 9 8
6 5 6 9 9 9 9 8 8 8 9 8 8 8 8 8 8 8 8 7 8 8 8 8 8 8 7 7 6 7 7 6 6 5 3 3 2 7 8 8 8 8 8
5 5 6 8 9 9 9 8 8 8 8 8 8 8 7 7 7 7 8 8 8 8 8 8 8 8 7 6 6 7 7 7 6 4 3 3 2 6 7 7 7 7 8
5 4 5 8 8 8 8 8 7 7 7 7 7 7 7 7 7 7 7 8 8 8 7 7 7 7 6 6 6 7 7 7 5 4 3 2 3 6 7 7 7 7 7
6 5 5 7 7 7 8 7 7 6 6 7 7 7 7 7 6 7 7 8 8 7 7 7 7 6 6 6 7 7 7 7 6 4 3 2 4 6 7 7 7 8 8
5 5 3 4 4 5 6 7 6 5 5 6 6 6 6 6 6 6 7 7 8 7 7 6 6 5 5 5 6 7 7 8 4 2 3 2 5 7 7 7 7 7 7
4 4 4 3 3 3 3 6 6 5 5 5 5 5 5 5 5 5 5 6 7 7 6 5 5 5 4 4 6 7 8 6 3 3 2 2 6 7 8 7 7 7 7
3 3 3 3 3 2 2 5 5 4 4 4 4 5 4 2 2 3 4 5 6 6 6 5 4 4 4 4 5 7 6 2 3 2 1 5 7 7 7 7 7 7 7
3 3 3 3 3 3 2 3 2 2 2 2 2 2 2 1 1 2 4 5 5 4 4 3 3 3 3 2 3 5 2 3 2 1 2 6 6 7 7 7 6 6 7
3 4 4 4 3 3 2 2 2 1 1 1 2 2 2 1 1 1 1 2 2 2 1 2 2 1 1 2 2 2 2 2 1 1 2 5 6 6 6 6 7 6 6
3 4 4 4 4 3 2 2 2 2 1 1 2 2 2 1 1 1 1 1 1 1 1 1 1 2 2 3 3 3 3 2 1 1 2 5 5 5 6 6 6 6 6
3 3 3 4 4 3 3 3 3 2 2 2 2 2 2 2 2 2 1 1 2 1 2 1 1 2 3 3 3 3 3 2 2 2 1 4 5 5 5 5 6 5 5
4 3 2 4 4 3 3 3 3 3 2 2 2 2 3 2 2 2 2 2 2 2 2 2 2 2 2 2 3 3 3 3 2 2 2 3 4 4 4 5 5 5 4
5 4 3 4 4 4 4 3 3 3 3 2 2 2 3 2 2 2 2 2 2 2 2 2 2 2 3 3 3 3 3 2 2 2 2 1 2 3 4 3 4 4 4
4 4 4 3 4 4 3 3 2 2 3 2 2 2 2 3 3 2 2 2 2 2 2 3 3 3 2 2 2 2 2 2 2 2 2 2 1 1 2 4 3 3 3
5 5 4 3 4 4 3 2 2 2 2 2 2 2 2 2 3 2 2 2 2 2 2 3 3 3 3 2 2 2 1 1 1 2 2 2 1 1 1 3 4 3 3
5 5 4 4 4 4 3 2 2 2 1 1 2 2 2 2 3 2 2 2 2 2 2 2 3 3 3 3 3 2 1 1 1 1 2 1 1 1 1 1 1 2 3
4 5 5 4 3 3 2 2 2 2 2 2 2 3 2 2 2 2 2 3 3 2 3 4 3 4 2 3 3 2 2 2 1 0 1 1 1 1 1 1 1 1 1
5 5 5 4 4 3 3 2 2 2 2 2 1 2 2 2 2 3 3 3 3 3 3 3 4 3 2 2 3 3 1 2 2 1 0 1 1 1 1 1 1 1 0
5 5 5 4 4 3 3 3 2 1 1 0 1 1 2 2 2 2 2 3 3 3 4 4 4 5 3 1 2 4 3 2 1 1 1 0 1 0 0 0 1 1 1
5 4 4 4 4 4 4 4 5 3 2 2 2 1 1 2 2 2 2 3 3 3 4 4 3 3 5 3 1 1 2 3 3 1 1 1 1 1 1 1 1 2 1
4 4 4 4 3 3 4 5 4 3 2 1 1 1 1 1 1 2 2 2 3 3 3 3 3 3 3 3 2 2 1 1 2 2 2 2 1 2 2 2 2 2 2
3 3 4 5 4 3 3 4 4 4 3 3 2 2 1 0 0 1 2 2 3 2 3 3 4 4 3 3 2 2 2 2 2 2 2 2 3 2 2 2 2 2 2
Wind_Direction
166 169 140 130 124 118 115 111 107 107 110 111 109 107 105 103 103 102 106 108 108 109 109 107 104 101 99 97 96 92 88 86 84 81 75 71 78 84 80 75 69 65 74
156 156 137 131 124 119 115 114 113 109 110 113 114 112 110 110 109 106 106 110 110 110 110 110 108 106 101 98 97 96 93 90 88 82 73 67 73 85 83 79 76 75 75
136 142 137 129 123 120 117 115 118 115 113 114 116 116 113 110 110 110 107 109 113 113 112 109 106 104 102 98 96 97 96 95 90 86 79 68 75 88 86 84 81 78 77
131 132 131 129 127 123 121 119 118 119 116 116 116 116 116 114 109 107 106 106 113 113 111 110 106 102 100 95 93 94 96 93 88 87 79 75 74 89 88 85 81 79 79
118 117 127 126 130 127 125 123 121 120 119 117 118 116 118 117 115 113 108 103 108 111 110 109 107 105 102 97 96 95 94 90 83 79 78 78 74 94 90 86 81 80 78
118 119 127 126 128 130 127 124 123 123 122 121 122 123 122 122 122 120 111 104 106 107 109 109 111 109 105 100 99 98 91 83 77 79 81 75 74 95 94 91 85 82 79
126 126 129 129 129 132 133 130 126 125 129 128 128 130 129 126 127 125 117 112 109 110 113 114 115 112 107 100 101 95 89 86 86 82 78 71 81 91 95 96 91 83 82
133 127 129 131 138 134 136 134 131 129 132 134 133 132 132 130 129 131 127 123 116 114 115 118 118 114 106 99 97 90 86 87 95 93 81 75 89 92 93 93 92 86 82
132 129 128 132 141 135 137 135 132 130 129 133 136 133 130 130 129 131 131 130 124 119 115 116 118 113 105 97 91 88 88 85 87 87 90 74 86 90 91 89 88 86 83
131 134 140 133 136 135 148 137 128 125 122 125 127 129 126 126 127 129 132 133 129 125 118 117 115 107 96 91 90 91 91 85 86 88 78 83 88 88 88 87 84 84 83
150 143 146 143 139 138 157 145 130 125 123 122 123 125 119 116 126 131 136 134 133 128 121 120 118 102 88 86 89 92 88 80 87 82 85 95 96 93 88 86 85 84 81
190 179 164 157 154 152 161 140 138 129 124 119 122 120 126 137 151 142 140 142 139 128 123 117 109 90 83 80 83 88 83 82 83 83 99 101 100 97 93 89 86 87 83
204 198 173 167 162 156 158 154 145 137 135 134 136 128 132 133 135 122 128 139 141 131 119 106 91 81 93 94 93 96 97 91 84 69 96 102 100 99 98 93 85 83 81
203 210 181 176 163 161 168 157 152 149 152 163 166 153 143 145 155 159 156 165 160 153 135 114 114 111 106 104 107 108 106 101 91 72 84 97 101 103 101 98 90 84 81
190 192 194 177 169 164 164 164 151 159 165 171 168 164 159 159 173 176 176 169 174 161 150 141 127 125 116 111 114 114 112 107 98 82 68 87 96 101 103 100 92 84 77
193 195 193 183 172 163 160 160 168 163 162 160 174 174 167 167 172 179 176 171 181 172 159 154 147 135 126 122 113 113 114 109 103 96 74 67 76 92 102 100 92 81 72
185 181 197 190 167 162 158 168 164 169 161 163 178 174 168 169 166 177 174 175 186 174 151 139 122 115 113 110 108 108 110 108 107 99 87 73 62 68 85 96 88 76 65
175 174 198 185 161 155 158 169 162 167 162 167 170 172 171 168 161 162 176 184 179 165 150 145 138 115 111 115 112 104 105 112 107 98 87 84 74 60 61 71 68 61 53
176 169 180 167 158 158 159 162 161 160 162 173 167 180 183 176 167 165 179 180 167 159 157 155 140 131 128 121 117 100 94 108 123 112 105 102 104 95 74 61 55 50 39
161 157 162 159 159 151 147 138 147 143 165 179 176 189 192 185 172 162 177 169 160 152 155 147 142 132 134 132 109 77 52 55 94 123 132 121 115 111 100 75 44 31 32
143 146 159 163 162 150 150 154 163 177 188 203 195 189 184 184 174 165 177 166 162 160 164 155 144 137 124 126 99 69 23 19 39 120 123 123 112 109 102 107 87 42 355
157 158 163 170 170 167 169 168 167 170 185 202 189 172 173 175 181 171 169 170 166 157 153 160 147 138 136 139 135 126 79 359 350 22 54 128 138 92 107 145 169 160 342
165 171 173 179 177 168 158 139 113 91 70 77 173 188 191 176 174 167 162 167 164 166 169 174 167 150 161 193 161 147 153 194 261 309 309 94 113 95 236 202 219 224 242
182 177 172 172 175 168 162 158 155 166 180 206 197 192 187 171 167 161 155 163 164 166 169 171 167 157 160 175 193 154 153 156 165 232 303 310 288 249 240 237 232 256 252
179 177 172 163 173 169 169 168 164 172 174 155 150 163 172 165 155 160 162 164 166 171 168 164 164 164 166 175 179 170 133 118 161 171 230 265 287 264 249 240 227 233 250
167 166 165 159 170 174 171 171 168 172 161 152 160 176 195 162 157 164 167 163 167 165 162 168 169 168 171 167 172 179 168 176 188 176 209 243 263 268 261 249 234 230 237